| time (UTC) | temp F | wind direction | speed MPH | gust MPH | rain 1hr in | rain 24hr in | rain mn in | humidity % | barometer mb |
| 20260506141046 | 47 | 0 | 0.0 | 5.0 | 0.03 | 0.57 | 0.43 | 96 | 1008.6 |
| 20260506140549 | 47 | 0 | 0.0 | 5.0 | 0.04 | 0.57 | 0.43 | 96 | 1008.5 |
| 20260506140052 | 47 | 0 | 0.0 | 2.0 | 0.03 | 0.56 | 0.42 | 96 | 1008.5 |
| 20260506135545 | 47 | 341 | 0.0 | 1.0 | 0.03 | 0.56 | 0.42 | 97 | 1008.5 |
| 20260506135045 | 46 | 0 | 0.0 | 6.0 | 0.03 | 0.55 | 0.41 | 96 | 1008.5 |
| 20260506134550 | 46 | 0 | 0.0 | 6.0 | 0.03 | 0.55 | 0.41 | 96 | 1008.5 |
| 20260506134046 | 47 | 0 | 0.0 | 2.0 | 0.04 | 0.55 | 0.41 | 97 | 1008.6 |
| 20260506133545 | 47 | 0 | 0.0 | 5.0 | 0.03 | 0.55 | 0.40 | 97 | 1008.5 |
| 20260506133052 | 47 | 0 | 0.0 | 5.0 | 0.03 | 0.54 | 0.40 | 97 | 1008.5 |
| 20260506132545 | 47 | 0 | 0.0 | 2.0 | 0.03 | 0.54 | 0.40 | 97 | 1008.4 |
| 20260506132047 | 46 | 0 | 0.0 | 3.0 | 0.03 | 0.54 | 0.40 | 97 | 1008.5 |
| 20260506131547 | 46 | 0 | 0.0 | 3.0 | 0.03 | 0.53 | 0.39 | 97 | 1008.5 |
| 20260506131045 | 46 | 0 | 0.0 | 4.0 | 0.03 | 0.53 | 0.39 | 97 | 1008.3 |
| 20260506130542 | 46 | 0 | 0.0 | 5.0 | 0.02 | 0.52 | 0.38 | 97 | 1008.3 |
| 20260506130058 | 46 | 0 | 0.0 | 5.0 | 0.02 | 0.52 | 0.38 | 97 | 1008.4 |
| 20260506125550 | 46 | 0 | 0.0 | 4.0 | 0.03 | 0.52 | 0.38 | 97 | 1008.2 |
| 20260506125045 | 46 | 0 | 0.0 | 0.0 | 0.02 | 0.51 | 0.37 | 97 | 1008.3 |
| 20260506124549 | 46 | 0 | 0.0 | 1.0 | 0.02 | 0.51 | 0.37 | 97 | 1008.3 |
| 20260506124042 | 46 | 0 | 0.0 | 5.0 | 0.01 | 0.51 | 0.37 | 97 | 1008.2 |
| 20260506123545 | 47 | 0 | 0.0 | 5.0 | 0.01 | 0.51 | 0.37 | 97 | 1008.3 |
| 20260506123049 | 47 | 0 | 0.0 | 3.0 | 0.01 | 0.51 | 0.37 | 97 | 1008.3 |
| 20260506122546 | 47 | 0 | 0.0 | 6.0 | 0.01 | 0.51 | 0.37 | 97 | 1008.2 |
| 20260506122045 | 47 | 0 | 0.0 | 6.0 | 0.00 | 0.50 | 0.36 | 97 | 1008.1 |
| 20260506121549 | 47 | 0 | 0.0 | 3.0 | 0.01 | 0.50 | 0.36 | 97 | 1008.2 |
| 20260506121045 | 47 | 0 | 0.0 | 6.0 | 0.01 | 0.50 | 0.36 | 97 | 1008.1 |
| 20260506120545 | 47 | 0 | 1.0 | 6.0 | 0.01 | 0.50 | 0.36 | 97 | 1008.1 |
| 20260506120055 | 47 | 0 | 0.0 | 3.0 | 0.01 | 0.50 | 0.36 | 97 | 1008.0 |
| 20260506115545 | 47 | 0 | 0.0 | 4.0 | 0.00 | 0.49 | 0.35 | 97 | 1008.0 |
| 20260506115045 | 47 | 0 | 0.0 | 4.0 | 0.00 | 0.49 | 0.35 | 97 | 1007.9 |
| 20260506114555 | 47 | 0 | 0.0 | 4.0 | 0.00 | 0.49 | 0.35 | 97 | 1007.9 |
| 20260506114045 | 47 | 0 | 0.0 | 5.0 | 0.00 | 0.49 | 0.35 | 97 | 1007.8 |
| 20260506113546 | 47 | 5 | 0.0 | 5.0 | 0.00 | 0.49 | 0.35 | 97 | 1007.8 |
| 20260506113055 | 47 | 0 | 0.0 | 1.0 | 0.00 | 0.49 | 0.35 | 97 | 1007.9 |
| 20260506112546 | 47 | 0 | 0.0 | 5.0 | 0.00 | 0.49 | 0.35 | 97 | 1007.8 |
| 20260506112045 | 47 | 0 | 0.0 | 6.0 | 0.00 | 0.49 | 0.35 | 97 | 1007.9 |
| 20260506111550 | 47 | 0 | 0.0 | 6.0 | 0.00 | 0.48 | 0.34 | 97 | 1007.8 |
| 20260506111045 | 47 | 0 | 0.0 | 6.0 | 0.00 | 0.48 | 0.34 | 97 | 1007.8 |
| 20260506110548 | 47 | 0 | 0.0 | 4.0 | 0.00 | 0.48 | 0.34 | 97 | 1007.7 |
| 20260506110055 | 47 | 0 | 0.0 | 4.0 | 0.00 | 0.48 | 0.34 | 97 | 1007.7 |
| 20260506105545 | 47 | 0 | 0.0 | 5.0 | 0.01 | 0.52 | 0.34 | 97 | 1007.7 |
| 20260506105046 | 47 | 0 | 0.0 | 5.0 | 0.01 | 0.52 | 0.34 | 97 | 1007.7 |
| 20260506104550 | 47 | 0 | 0.0 | 4.0 | 0.02 | 0.52 | 0.34 | 97 | 1007.6 |
| 20260506104045 | 47 | 0 | 0.0 | 4.0 | 0.02 | 0.52 | 0.34 | 97 | 1007.5 |
| 20260506103547 | 47 | 0 | 0.0 | 4.0 | 0.03 | 0.52 | 0.34 | 97 | 1007.5 |
| 20260506103054 | 47 | 0 | 0.0 | 7.0 | 0.03 | 0.52 | 0.34 | 97 | 1007.6 |
| 20260506102546 | 48 | 0 | 0.0 | 7.0 | 0.03 | 0.52 | 0.34 | 97 | 1007.5 |
| 20260506102046 | 48 | 0 | 0.0 | 3.0 | 0.03 | 0.52 | 0.34 | 97 | 1007.5 |
| 20260506101552 | 48 | 0 | 0.0 | 3.0 | 0.03 | 0.51 | 0.33 | 97 | 1007.4 |
| 20260506101045 | 48 | 0 | 0.0 | 4.0 | 0.03 | 0.51 | 0.33 | 97 | 1007.5 |
| 20260506100545 | 48 | 0 | 0.0 | 4.0 | 0.03 | 0.51 | 0.33 | 97 | 1007.3 |
| 20260506100050 | 48 | 323 | 0.0 | 3.0 | 0.02 | 0.51 | 0.33 | 97 | 1007.3 |
| 20260506095546 | 48 | 0 | 0.0 | 0.0 | 0.02 | 0.55 | 0.33 | 97 | 1007.3 |
| 20260506095046 | 48 | 0 | 0.0 | 5.0 | 0.02 | 0.55 | 0.33 | 97 | 1007.2 |
| 20260506094554 | 48 | 0 | 0.0 | 5.0 | 0.01 | 0.55 | 0.32 | 97 | 1007.3 |
| 20260506094046 | 48 | 0 | 0.0 | 5.0 | 0.02 | 0.55 | 0.32 | 97 | 1007.2 |
| 20260506093545 | 48 | 0 | 0.0 | 3.0 | 0.01 | 0.54 | 0.31 | 97 | 1007.2 |
| 20260506093051 | 48 | 0 | 0.0 | 5.0 | 0.00 | 0.53 | 0.30 | 97 | 1007.1 |
| 20260506092542 | 48 | 0 | 0.0 | 6.0 | 0.00 | 0.53 | 0.30 | 97 | 1007.1 |
| 20260506092045 | 48 | 0 | 0.0 | 6.0 | 0.00 | 0.53 | 0.30 | 97 | 1006.9 |
| 20260506091550 | 48 | 0 | 0.0 | 6.0 | 0.00 | 0.53 | 0.30 | 97 | 1006.9 |
| 20260506091045 | 48 | 0 | 0.0 | 6.0 | 0.00 | 0.53 | 0.30 | 97 | 1006.8 |
| 20260506090541 | 48 | 0 | 0.0 | 9.0 | 0.00 | 0.53 | 0.30 | 97 | 1006.8 |
| 20260506090056 | 48 | 0 | 1.0 | 9.0 | 0.00 | 0.53 | 0.30 | 97 | 1006.7 |
| 20260506085545 | 49 | 360 | 0.0 | 8.0 | 0.00 | 0.53 | 0.30 | 97 | 1006.7 |
| 20260506085045 | 48 | 0 | 0.0 | 6.0 | 0.00 | 0.53 | 0.30 | 97 | 1006.7 |
| 20260506084612 | 48 | 0 | 0.0 | 6.0 | 0.00 | 0.53 | 0.30 | 97 | 1006.7 |
| 20260506084045 | 48 | 0 | 0.0 | 3.0 | 0.00 | 0.52 | 0.29 | 97 | 1006.7 |
| 20260506083546 | 48 | 0 | 0.0 | 3.0 | 0.00 | 0.52 | 0.29 | 97 | 1006.7 |
| 20260506083051 | 49 | 0 | 0.0 | 3.0 | 0.00 | 0.52 | 0.29 | 97 | 1006.5 |
| 20260506082545 | 48 | 0 | 0.0 | 0.0 | 0.00 | 0.52 | 0.29 | 97 | 1006.6 |
| 20260506082045 | 48 | 0 | 0.0 | 0.0 | 0.00 | 0.52 | 0.29 | 97 | 1006.6 |
| 20260506081551 | 49 | 0 | 0.0 | 0.0 | 0.00 | 0.52 | 0.29 | 97 | 1006.5 |
| 20260506081045 | 49 | 0 | 0.0 | 3.0 | 0.00 | 0.52 | 0.29 | 97 | 1006.5 |
| 20260506080542 | 49 | 0 | 0.0 | 3.0 | 0.00 | 0.52 | 0.29 | 97 | 1006.5 |
| 20260506073058 | 49 | 0 | 0.0 | 2.0 | 0.00 | 0.52 | 0.29 | 97 | 1006.4 |
| 20260506072542 | 49 | 0 | 0.0 | 4.0 | 0.00 | 0.52 | 0.29 | 97 | 1006.3 |
| 20260506072045 | 49 | 0 | 0.0 | 4.0 | 0.01 | 0.52 | 0.29 | 97 | 1006.4 |
| 20260506071554 | 49 | 0 | 0.0 | 4.0 | 0.00 | 0.51 | 0.29 | 97 | 1006.3 |
| 20260506071041 | 49 | 0 | 0.0 | 2.0 | 0.00 | 0.51 | 0.29 | 97 | 1006.3 |
| 20260506070547 | 49 | 0 | 0.0 | 0.0 | 0.00 | 0.51 | 0.29 | 97 | 1006.4 |
| 20260506062042 | 48 | 0 | 0.0 | 0.0 | 0.00 | 0.51 | 0.28 | 97 | 1006.1 |
| 20260506061558 | 48 | 0 | 0.0 | 0.0 | 0.00 | 0.51 | 0.28 | 97 | 1006.1 |
| 20260506061042 | 48 | 0 | 0.0 | 0.0 | 0.00 | 0.51 | 0.28 | 97 | 1006.1 |
| 20260506060543 | 48 | 0 | 0.0 | 0.0 | 0.01 | 0.51 | 0.28 | 97 | 1005.9 |
| 20260506051047 | 48 | 0 | 0.0 | 2.0 | 0.01 | 0.51 | 0.27 | 97 | 1006.1 |
| 20260506050542 | 48 | 0 | 0.0 | 2.0 | 0.00 | 0.50 | 0.26 | 97 | 1006.0 |
| 20260506050108 | 48 | 0 | 0.0 | 0.0 | 0.00 | 0.50 | 0.26 | 97 | 1006.1 |
| 20260506045043 | 48 | 0 | 0.0 | 0.0 | 0.00 | 0.50 | 0.26 | 97 | 1006.1 |
| 20260506044554 | 48 | 0 | 0.0 | 1.0 | 0.00 | 0.50 | 0.26 | 97 | 1006.2 |
| 20260506044041 | 48 | 0 | 0.0 | 1.0 | 0.00 | 0.50 | 0.26 | 97 | 1006.1 |
| 20260506043544 | 48 | 0 | 0.0 | 3.0 | 0.00 | 0.50 | 0.26 | 97 | 1006.0 |
| 20260506043100 | 48 | 0 | 0.0 | 3.0 | 0.01 | 0.50 | 0.26 | 97 | 1006.1 |
| 20260506042543 | 48 | 0 | 0.0 | 3.0 | 0.00 | 0.49 | 0.25 | 97 | 1006.0 |
| 20260506042045 | 48 | 0 | 0.0 | 0.0 | 0.00 | 0.49 | 0.25 | 97 | 1006.0 |
| 20260506041558 | 48 | 0 | 0.0 | 6.0 | 0.01 | 0.49 | 0.25 | 97 | 1006.0 |
| 20260506041044 | 48 | 0 | 0.0 | 6.0 | 0.01 | 0.49 | 0.25 | 96 | 1005.9 |
| 20260506040545 | 48 | 0 | 0.0 | 6.0 | 0.01 | 0.49 | 0.25 | 96 | 1005.9 |
| 20260506040105 | 49 | 0 | 0.0 | 6.0 | 0.01 | 0.49 | 0.25 | 96 | 1006.0 |
| 20260506035544 | 49 | 0 | 0.0 | 6.0 | 0.02 | 0.49 | 0.25 | 97 | 1006.0 |
| 20260506035045 | 49 | 0 | 0.0 | 2.0 | 0.02 | 0.49 | 0.25 | 97 | 1006.0 |
| 20260506034556 | 49 | 0 | 0.0 | 2.0 | 0.02 | 0.49 | 0.25 | 97 | 1006.0 |
| 20260506034044 | 49 | 0 | 0.0 | 0.0 | 0.02 | 0.49 | 0.25 | 96 | 1006.0 |
| 20260506033542 | 49 | 0 | 0.0 | 3.0 | 0.02 | 0.49 | 0.25 | 96 | 1005.9 |
| 20260506033052 | 49 | 0 | 0.0 | 3.0 | 0.01 | 0.48 | 0.25 | 97 | 1006.0 |
| 20260506032545 | 49 | 0 | 0.0 | 5.0 | 0.02 | 0.48 | 0.25 | 97 | 1006.0 |
| 20260506032042 | 49 | 0 | 0.0 | 6.0 | 0.02 | 0.48 | 0.25 | 97 | 1006.0 |
| 20260506031554 | 49 | 0 | 0.0 | 6.0 | 0.01 | 0.48 | 0.24 | 97 | 1006.0 |
| 20260506031045 | 49 | 355 | 0.0 | 5.0 | 0.01 | 0.48 | 0.24 | 96 | 1006.0 |
| 20260506030545 | 49 | 0 | 0.0 | 5.0 | 0.01 | 0.48 | 0.24 | 96 | 1006.1 |
| 20260506030057 | 50 | 0 | 0.0 | 5.0 | 0.02 | 0.48 | 0.24 | 96 | 1006.2 |
| 20260506025544 | 50 | 0 | 0.0 | 3.0 | 0.01 | 0.47 | 0.23 | 96 | 1006.1 |
| 20260506025044 | 50 | 0 | 0.0 | 5.0 | 0.01 | 0.47 | 0.23 | 96 | 1006.2 |
| 20260506024557 | 50 | 0 | 0.0 | 5.0 | 0.01 | 0.47 | 0.23 | 96 | 1006.2 |
| 20260506024045 | 50 | 0 | 0.0 | 8.0 | 0.01 | 0.47 | 0.23 | 96 | 1006.3 |
| 20260506023546 | 50 | 0 | 1.0 | 8.0 | 0.02 | 0.47 | 0.23 | 96 | 1006.2 |
| 20260506023051 | 50 | 0 | 0.0 | 4.0 | 0.02 | 0.47 | 0.23 | 96 | 1006.2 |
| 20260506022544 | 50 | 0 | 0.0 | 6.0 | 0.01 | 0.46 | 0.22 | 96 | 1006.2 |
| 20260506022044 | 50 | 0 | 0.0 | 6.0 | 0.02 | 0.46 | 0.22 | 96 | 1006.3 |
| 20260506021602 | 50 | 355 | 0.0 | 6.0 | 0.02 | 0.46 | 0.22 | 96 | 1006.3 |
| 20260506021042 | 50 | 344 | 0.0 | 5.0 | 0.03 | 0.46 | 0.22 | 97 | 1006.4 |
| 20260506020545 | 50 | 0 | 0.0 | 5.0 | 0.03 | 0.46 | 0.22 | 97 | 1006.3 |
| 20260506020051 | 50 | 0 | 0.0 | 10.0 | 0.03 | 0.45 | 0.22 | 97 | 1006.4 |
| 20260506015547 | 50 | 0 | 0.0 | 10.0 | 0.03 | 0.45 | 0.22 | 96 | 1006.4 |
| 20260506015047 | 51 | 342 | 0.0 | 10.0 | 0.03 | 0.45 | 0.22 | 96 | 1006.4 |
| 20260506014555 | 51 | 0 | 0.0 | 4.0 | 0.04 | 0.45 | 0.22 | 96 | 1006.4 |
| 20260506014046 | 51 | 0 | 0.0 | 4.0 | 0.05 | 0.45 | 0.22 | 96 | 1006.5 |
| 20260506013541 | 51 | 0 | 0.0 | 4.0 | 0.04 | 0.44 | 0.21 | 96 | 1006.6 |
| 20260506013104 | 51 | 0 | 0.0 | 10.0 | 0.05 | 0.44 | 0.21 | 96 | 1006.6 |
| 20260506012545 | 51 | 0 | 0.0 | 10.0 | 0.04 | 0.44 | 0.20 | 96 | 1006.5 |
| 20260506012049 | 51 | 0 | 1.0 | 10.0 | 0.05 | 0.44 | 0.20 | 96 | 1006.6 |
| 20260506011605 | 51 | 0 | 0.0 | 8.0 | 0.05 | 0.44 | 0.20 | 96 | 1006.6 |
| 20260506011044 | 51 | 0 | 0.0 | 5.0 | 0.05 | 0.43 | 0.19 | 96 | 1006.6 |
| 20260506010544 | 51 | 0 | 0.0 | 5.0 | 0.06 | 0.43 | 0.19 | 96 | 1006.6 |
| 20260506010053 | 51 | 0 | 0.0 | 3.0 | 0.06 | 0.42 | 0.18 | 96 | 1006.6 |
| 20260506005541 | 51 | 0 | 0.0 | 5.0 | 0.05 | 0.41 | 0.18 | 96 | 1006.7 |
| 20260506005043 | 51 | 328 | 0.0 | 5.0 | 0.06 | 0.41 | 0.18 | 96 | 1006.7 |
| 20260506004550 | 51 | 0 | 0.0 | 3.0 | 0.05 | 0.40 | 0.17 | 96 | 1006.8 |
| 20260506004042 | 51 | 0 | 0.0 | 3.0 | 0.05 | 0.40 | 0.16 | 96 | 1006.8 |
| 20260506003545 | 51 | 0 | 0.0 | 2.0 | 0.06 | 0.40 | 0.16 | 96 | 1006.9 |
| 20260506003052 | 51 | 0 | 0.0 | 4.0 | 0.05 | 0.39 | 0.15 | 96 | 1006.8 |
| 20260506002541 | 51 | 0 | 0.0 | 4.0 | 0.06 | 0.39 | 0.15 | 96 | 1006.9 |
| 20260506002042 | 51 | 0 | 0.0 | 4.0 | 0.05 | 0.38 | 0.14 | 96 | 1006.9 |
| 20260506001554 | 51 | 0 | 0.0 | 5.0 | 0.05 | 0.37 | 0.14 | 96 | 1007.0 |
| 20260506001044 | 51 | 0 | 0.0 | 5.0 | 0.06 | 0.37 | 0.14 | 96 | 1007.0 |
| 20260506000542 | 51 | 0 | 0.0 | 6.0 | 0.05 | 0.37 | 0.13 | 96 | 1007.0 |
| 20260506000050 | 51 | 0 | 0.0 | 6.0 | 0.05 | 0.36 | 0.12 | 96 | 1007.0 |
| 20260505235541 | 51 | 0 | 0.0 | 4.0 | 0.06 | 0.36 | 0.12 | 96 | 1007.0 |
| 20260505235045 | 51 | 0 | 0.0 | 4.0 | 0.05 | 0.35 | 0.11 | 96 | 1007.1 |
| 20260505234606 | 51 | 0 | 0.0 | 1.0 | 0.06 | 0.35 | 0.11 | 96 | 1007.3 |
| 20260505234047 | 51 | 0 | 0.0 | 1.0 | 0.06 | 0.34 | 0.11 | 96 | 1007.4 |
| 20260505233547 | 51 | 0 | 0.0 | 3.0 | 0.05 | 0.33 | 0.10 | 96 | 1007.3 |
| 20260505233048 | 51 | 0 | 0.0 | 3.0 | 0.06 | 0.33 | 0.10 | 96 | 1007.3 |
| 20260505232547 | 51 | 0 | 0.0 | 0.0 | 0.06 | 0.33 | 0.09 | 96 | 1007.4 |
| 20260505232047 | 51 | 0 | 0.0 | 4.0 | 0.06 | 0.32 | 0.08 | 96 | 1007.4 |
| 20260505231605 | 51 | 0 | 0.0 | 4.0 | 0.07 | 0.32 | 0.08 | 96 | 1007.5 |
| 20260505231045 | 51 | 0 | 0.0 | 4.0 | 0.06 | 0.31 | 0.07 | 96 | 1007.4 |
| 20260505230545 | 51 | 0 | 0.0 | 2.0 | 0.07 | 0.31 | 0.07 | 96 | 1007.5 |
| 20260505230054 | 51 | 0 | 0.0 | 0.0 | 0.07 | 0.30 | 0.07 | 96 | 1007.5 |
| 20260505225547 | 51 | 0 | 0.0 | 0.0 | 0.06 | 0.29 | 0.06 | 96 | 1007.6 |
| 20260505225047 | 51 | 0 | 0.0 | 1.0 | 0.07 | 0.29 | 0.06 | 96 | 1007.6 |
| 20260505224551 | 51 | 0 | 0.0 | 1.0 | 0.06 | 0.29 | 0.05 | 96 | 1007.7 |
| 20260505224050 | 51 | 0 | 0.0 | 0.0 | 0.06 | 0.28 | 0.04 | 96 | 1007.6 |
| 20260505223546 | 51 | 0 | 0.0 | 0.0 | 0.06 | 0.27 | 0.03 | 96 | 1007.7 |
| 20260505223103 | 51 | 0 | 0.0 | 0.0 | 0.07 | 0.27 | 0.03 | 96 | 1007.7 |
| 20260505222548 | 51 | 0 | 0.0 | 4.0 | 0.06 | 0.26 | 0.03 | 96 | 1007.7 |
| 20260505222051 | 51 | 0 | 0.0 | 4.0 | 0.06 | 0.25 | 0.02 | 96 | 1007.7 |
| 20260505221558 | 51 | 0 | 0.0 | 0.0 | 0.05 | 0.25 | 0.01 | 96 | 1007.8 |
| 20260505221048 | 51 | 0 | 0.0 | 1.0 | 0.06 | 0.25 | 0.01 | 96 | 1007.8 |
| 20260505220546 | 51 | 0 | 0.0 | 1.0 | 0.05 | 0.24 | 0.00 | 96 | 1007.8 |
| 20260505220054 | 51 | 0 | 0.0 | 0.0 | 0.05 | 0.23 | 0.00 | 96 | 1007.8 |
| 20260505215547 | 51 | 0 | 0.0 | 0.0 | 0.05 | 0.24 | 0.23 | 96 | 1007.8 |
| 20260505215047 | 51 | 0 | 0.0 | 0.0 | 0.05 | 0.23 | 0.22 | 96 | 1007.9 |
| 20260505214612 | 51 | 0 | 0.0 | 0.0 | 0.05 | 0.23 | 0.22 | 96 | 1007.9 |
| 20260505214046 | 51 | 0 | 0.0 | 0.0 | 0.04 | 0.22 | 0.22 | 96 | 1008.1 |
| 20260505213545 | 51 | 0 | 0.0 | 1.0 | 0.04 | 0.22 | 0.21 | 96 | 1008.0 |
| 20260505213057 | 51 | 0 | 0.0 | 1.0 | 0.03 | 0.21 | 0.20 | 96 | 1008.0 |
| 20260505212545 | 51 | 0 | 0.0 | 1.0 | 0.03 | 0.20 | 0.19 | 96 | 1008.1 |
| 20260505212048 | 51 | 0 | 0.0 | 0.0 | 0.03 | 0.20 | 0.19 | 96 | 1008.2 |
| 20260505211551 | 51 | 0 | 0.0 | 0.0 | 0.03 | 0.19 | 0.18 | 96 | 1008.1 |
| 20260505211047 | 51 | 0 | 0.0 | 0.0 | 0.04 | 0.19 | 0.18 | 96 | 1008.2 |
| 20260505210546 | 51 | 0 | 0.0 | 0.0 | 0.03 | 0.18 | 0.18 | 96 | 1008.1 |
| 20260505210050 | 51 | 0 | 0.0 | 6.0 | 0.03 | 0.18 | 0.18 | 96 | 1008.3 |
| 20260505205547 | 51 | 0 | 0.0 | 6.0 | 0.04 | 0.18 | 0.18 | 96 | 1008.3 |
| 20260505205048 | 51 | 0 | 0.0 | 3.0 | 0.03 | 0.18 | 0.17 | 96 | 1008.3 |
| 20260505204549 | 51 | 0 | 0.0 | 3.0 | 0.03 | 0.18 | 0.17 | 96 | 1008.3 |
| 20260505204046 | 51 | 0 | 0.0 | 3.0 | 0.04 | 0.18 | 0.17 | 96 | 1008.3 |
| 20260505203546 | 51 | 0 | 0.0 | 2.0 | 0.03 | 0.17 | 0.16 | 96 | 1008.3 |
| 20260505203054 | 51 | 0 | 0.0 | 2.0 | 0.03 | 0.17 | 0.16 | 96 | 1008.3 |
| 20260505202542 | 51 | 0 | 0.0 | 0.0 | 0.03 | 0.16 | 0.15 | 96 | 1008.5 |
| 20260505202045 | 51 | 0 | 0.0 | 2.0 | 0.03 | 0.16 | 0.15 | 96 | 1008.3 |
| 20260505201557 | 51 | 0 | 0.0 | 2.0 | 0.03 | 0.15 | 0.14 | 96 | 1008.3 |
| 20260505201045 | 51 | 0 | 0.0 | 2.0 | 0.03 | 0.14 | 0.14 | 96 | 1008.4 |
| 20260505200545 | 51 | 0 | 0.0 | 1.0 | 0.03 | 0.14 | 0.14 | 96 | 1008.2 |
| 20260505195541 | 51 | 0 | 0.0 | 6.0 | 0.03 | 0.14 | 0.13 | 95 | 1008.3 |
| 20260505195044 | 51 | 0 | 0.0 | 6.0 | 0.03 | 0.14 | 0.13 | 95 | 1008.4 |
| 20260505194555 | 51 | 0 | 0.0 | 1.0 | 0.03 | 0.14 | 0.13 | 95 | 1008.3 |
| 20260505194045 | 51 | 0 | 0.0 | 1.0 | 0.03 | 0.13 | 0.12 | 95 | 1008.3 |
| 20260505193545 | 51 | 0 | 0.0 | 1.0 | 0.03 | 0.13 | 0.12 | 95 | 1008.4 |
| 20260505193050 | 51 | 0 | 0.0 | 3.0 | 0.03 | 0.13 | 0.12 | 95 | 1008.4 |
| 20260505192546 | 52 | 0 | 0.0 | 3.0 | 0.02 | 0.12 | 0.11 | 95 | 1008.4 |
| 20260505192044 | 52 | 0 | 0.0 | 3.0 | 0.02 | 0.12 | 0.11 | 95 | 1008.3 |
| 20260505191554 | 52 | 0 | 0.0 | 2.0 | 0.02 | 0.12 | 0.11 | 95 | 1008.4 |
| 20260505191044 | 52 | 0 | 0.0 | 1.0 | 0.01 | 0.11 | 0.11 | 95 | 1008.4 |
| 20260505190545 | 52 | 0 | 0.0 | 3.0 | 0.01 | 0.11 | 0.11 | 95 | 1008.4 |
| 20260505190051 | 52 | 0 | 0.0 | 3.0 | 0.00 | 0.11 | 0.10 | 95 | 1008.4 |
| 20260505185547 | 52 | 0 | 0.0 | 2.0 | 0.00 | 0.11 | 0.10 | 95 | 1008.3 |
| 20260505185042 | 52 | 0 | 0.0 | 3.0 | 0.00 | 0.11 | 0.09 | 95 | 1008.3 |
| 20260505184554 | 52 | 0 | 0.0 | 5.0 | 0.00 | 0.11 | 0.09 | 95 | 1008.3 |
| 20260505184042 | 52 | 0 | 0.0 | 5.0 | 0.00 | 0.11 | 0.09 | 95 | 1008.4 |
| 20260505183544 | 52 | 0 | 0.0 | 5.0 | 0.00 | 0.11 | 0.09 | 95 | 1008.5 |
| 20260505183103 | 52 | 0 | 0.0 | 5.0 | 0.00 | 0.11 | 0.09 | 95 | 1008.3 |
| 20260505182544 | 52 | 0 | 0.0 | 4.0 | 0.00 | 0.11 | 0.09 | 95 | 1008.3 |
| 20260505182044 | 52 | 0 | 0.0 | 0.0 | 0.00 | 0.11 | 0.09 | 95 | 1008.3 |
| 20260505181552 | 52 | 0 | 0.0 | 4.0 | 0.00 | 0.11 | 0.09 | 95 | 1008.4 |
| 20260505181046 | 52 | 0 | 0.0 | 4.0 | 0.00 | 0.11 | 0.09 | 95 | 1008.4 |
| 20260505180544 | 52 | 0 | 0.0 | 4.0 | 0.00 | 0.11 | 0.09 | 95 | 1008.5 |
| 20260505180053 | 52 | 0 | 0.0 | 3.0 | 0.00 | 0.11 | 0.09 | 95 | 1008.5 |
| 20260505175541 | 52 | 0 | 0.0 | 3.0 | 0.00 | 0.14 | 0.09 | 95 | 1008.5 |
| 20260505175045 | 52 | 0 | 0.0 | 3.0 | 0.00 | 0.14 | 0.09 | 95 | 1008.5 |
| 20260505174557 | 52 | 0 | 0.0 | 4.0 | 0.00 | 0.14 | 0.09 | 95 | 1008.4 |
| 20260505174042 | 52 | 0 | 0.0 | 4.0 | 0.00 | 0.14 | 0.09 | 95 | 1008.6 |
| 20260505173541 | 52 | 0 | 0.0 | 3.0 | 0.00 | 0.14 | 0.09 | 95 | 1008.5 |
| 20260505173054 | 52 | 0 | 0.0 | 3.0 | 0.00 | 0.14 | 0.09 | 95 | 1008.6 |
| 20260505172545 | 52 | 0 | 0.0 | 0.0 | 0.00 | 0.14 | 0.09 | 95 | 1008.6 |
| 20260505172048 | 52 | 0 | 0.0 | 0.0 | 0.00 | 0.14 | 0.09 | 95 | 1008.6 |
| 20260505171551 | 52 | 0 | 0.0 | 4.0 | 0.00 | 0.14 | 0.09 | 95 | 1008.5 |
| 20260505171046 | 52 | 0 | 0.0 | 4.0 | 0.00 | 0.14 | 0.09 | 95 | 1008.6 |
| 20260505170547 | 52 | 337 | 0.0 | 4.0 | 0.00 | 0.14 | 0.09 | 96 | 1008.7 |
| 20260505170050 | 52 | 0 | 0.0 | 0.0 | 0.00 | 0.14 | 0.09 | 95 | 1008.6 |
| 20260505165547 | 52 | 0 | 0.0 | 3.0 | 0.00 | 0.15 | 0.09 | 95 | 1008.7 |
| 20260505165048 | 52 | 0 | 0.0 | 3.0 | 0.00 | 0.15 | 0.09 | 95 | 1008.7 |
| 20260505164551 | 52 | 0 | 0.0 | 3.0 | 0.00 | 0.15 | 0.09 | 95 | 1008.8 |
| 20260505164047 | 52 | 0 | 0.0 | 4.0 | 0.00 | 0.15 | 0.09 | 95 | 1008.8 |
| 20260505163547 | 52 | 0 | 0.0 | 4.0 | 0.00 | 0.15 | 0.09 | 95 | 1008.9 |
| 20260505163055 | 52 | 0 | 0.0 | 0.0 | 0.00 | 0.15 | 0.09 | 95 | 1008.9 |
| 20260505162545 | 52 | 0 | 0.0 | 6.0 | 0.00 | 0.15 | 0.09 | 95 | 1008.9 |
| 20260505162046 | 52 | 0 | 0.0 | 6.0 | 0.00 | 0.15 | 0.09 | 95 | 1008.8 |
| 20260505161600 | 52 | 0 | 0.0 | 6.0 | 0.00 | 0.15 | 0.09 | 96 | 1008.8 |
| 20260505161046 | 52 | 0 | 0.0 | 3.0 | 0.00 | 0.15 | 0.09 | 95 | 1008.9 |
| 20260505160547 | 52 | 0 | 0.0 | 5.0 | 0.00 | 0.15 | 0.09 | 95 | 1008.8 |
| 20260505153101 | 53 | 0 | 0.0 | 5.0 | 0.00 | 0.16 | 0.09 | 95 | 1009.1 |
| 20260505152546 | 53 | 0 | 0.0 | 5.0 | 0.00 | 0.16 | 0.09 | 95 | 1009.1 |
| 20260505152045 | 53 | 0 | 0.0 | 4.0 | 0.00 | 0.16 | 0.09 | 95 | 1009.2 |
| 20260505151604 | 53 | 0 | 0.0 | 4.0 | 0.00 | 0.16 | 0.09 | 96 | 1009.3 |
| 20260505151044 | 53 | 0 | 0.0 | 4.0 | 0.00 | 0.16 | 0.09 | 96 | 1009.2 |
| 20260505150544 | 53 | 0 | 0.0 | 4.0 | 0.00 | 0.16 | 0.09 | 96 | 1009.3 |